When you browse on this site, cookies collect data to enhance your experience and personalize the content and advertising you see.
Visit our Privacy Policy to learn more. By continuing to use the site, you agree to this use of cookies and data.
  • In Sweden
  • List of Countries
  • For 7 days
  • Water Temperature
  • Weather Map
  • Weather Widgets
  • user-avatar
    Login

    Hourly Weather Cestas

    Today, 21 August, Wednesday

    Time Temperature Precipitation Wind Pressure Humidity
    00:00 +16°C° 0 mm 2 mps 763 mmHg 73%
    01:00 +16°C° 0 mm 2 mps 763 mmHg 74%
    02:00 +15°C° 0 mm 2 mps 763 mmHg 75%
    03:00 +15°C° 0 mm 2 mps 762 mmHg 75%
    04:00 +15°C° 0 mm 2 mps 762 mmHg 74%
    05:00 +15°C° 0 mm 2 mps 762 mmHg 73%
    06:00 +15°C° 0 mm 2 mps 762 mmHg 71%
    07:00 +17°C° 0 mm 2 mps 762 mmHg 63%
    08:00 +20°C° 0 mm 2 mps 762 mmHg 56%
    09:00 +23°C° 0 mm 2 mps 762 mmHg 48%
    10:00 +25°C° 0 mm 3 mps 762 mmHg 42%
    11:00 +26°C° 0 mm 3 mps 762 mmHg 36%
    12:00 +28°C° 0 mm 3 mps 762 mmHg 30%
    13:00 +29°C° 0 mm 3 mps 761 mmHg 29%
    14:00 +29°C° 0 mm 3 mps 761 mmHg 29%
    15:00 +30°C° 0 mm 3 mps 761 mmHg 28%
    16:00 +28°C° 0 mm 3 mps 760 mmHg 33%
    17:00 +27°C° 0 mm 3 mps 760 mmHg 38%
    18:00 +26°C° 0 mm 3 mps 760 mmHg 44%
    19:00 +24°C° 0 mm 3 mps 761 mmHg 48%
    20:00 +22°C° 0 mm 3 mps 761 mmHg 52%
    21:00 +20°C° 0 mm 3 mps 761 mmHg 56%
    22:00 +19°C° 0 mm 2 mps 761 mmHg 57%
    23:00 +18°C° 0 mm 2 mps 761 mmHg 58%

    Tomorrow, 22 August, Thursday

    Time Temperature Precipitation Wind Pressure Humidity
    00:00 +18°C° 0 mm 2 mps 762 mmHg 60%
    01:00 +17°C° 0 mm 2 mps 761 mmHg 61%
    02:00 +16°C° 0 mm 2 mps 761 mmHg 63%
    03:00 +16°C° 0 mm 1 mps 761 mmHg 64%
    04:00 +16°C° 0 mm 1 mps 761 mmHg 65%
    05:00 +16°C° 0 mm 1 mps 761 mmHg 66%
    06:00 +16°C° 0 mm 1 mps 761 mmHg 66%
    07:00 +18°C° 0 mm 2 mps 762 mmHg 59%
    08:00 +21°C° 0 mm 2 mps 762 mmHg 51%
    09:00 +25°C° 0 mm 2 mps 762 mmHg 44%
    10:00 +27°C° 0 mm 2 mps 762 mmHg 39%
    11:00 +28°C° 0 mm 3 mps 762 mmHg 34%
    12:00 +30°C° 0 mm 3 mps 761 mmHg 30%
    13:00 +30°C° 0 mm 3 mps 761 mmHg 29%
    14:00 +31°C° 0 mm 3 mps 761 mmHg 28%
    15:00 +31°C° 0 mm 3 mps 760 mmHg 28%
    16:00 +30°C° 0 mm 3 mps 760 mmHg 33%
    17:00 +29°C° 0 mm 3 mps 760 mmHg 38%
    18:00 +28°C° 0 mm 3 mps 760 mmHg 43%
    19:00 +26°C° 0 mm 3 mps 760 mmHg 45%
    20:00 +24°C° 0 mm 2 mps 760 mmHg 48%
    21:00 +21°C° 0 mm 2 mps 760 mmHg 51%
    22:00 +21°C° 0 mm 2 mps 760 mmHg 52%
    23:00 +20°C° 0 mm 2 mps 760 mmHg 53%

    Day after tomorrow, 23 August, Friday

    Time Temperature Precipitation Wind Pressure Humidity
    00:00 +19°C° 0 mm 2 mps 760 mmHg 54%
    01:00 +18°C° 0 mm 2 mps 759 mmHg 57%
    02:00 +18°C° 0 mm 2 mps 759 mmHg 59%
    03:00 +18°C° 0 mm 1 mps 759 mmHg 61%
    04:00 +18°C° 0 mm 1 mps 759 mmHg 62%
    05:00 +18°C° 0 mm 1 mps 759 mmHg 63%
    06:00 +18°C° 0 mm 1 mps 759 mmHg 64%
    07:00 +21°C° 0 mm 1 mps 759 mmHg 57%
    08:00 +23°C° 0 mm 1 mps 759 mmHg 49%
    09:00 +26°C° 0 mm 1 mps 759 mmHg 41%
    10:00 +28°C° 0 mm 2 mps 759 mmHg 35%
    11:00 +31°C° 0 mm 2 mps 759 mmHg 29%
    12:00 +34°C° 0 mm 2 mps 758 mmHg 23%
    13:00 +34°C° 0 mm 1 mps 758 mmHg 21%
    14:00 +34°C° 0 mm 1 mps 758 mmHg 19%
    15:00 +35°C° 0 mm 1 mps 757 mmHg 17%
    16:00 +33°C° 0 mm 1 mps 757 mmHg 23%
    17:00 +32°C° 0 mm 1 mps 757 mmHg 29%
    18:00 +30°C° 0 mm 1 mps 757 mmHg 34%
    19:00 +28°C° 0 mm 1 mps 757 mmHg 39%
    20:00 +26°C° 0 mm 1 mps 757 mmHg 43%
    21:00 +24°C° 0 mm 1 mps 757 mmHg 47%
    22:00 +23°C° 0 mm 1 mps 757 mmHg 49%
    23:00 +23°C° 0 mm 1 mps 757 mmHg 50%

    24 August, Saturday

    Time Temperature Precipitation Wind Pressure Humidity
    00:00 +22°C° 0 mm 1 mps 756 mmHg 52%
    01:00 +22°C° 0 mm 1 mps 756 mmHg 54%
    02:00 +20°C° 0 mm 2 mps 756 mmHg 56%
    03:00 +20°C° 0 mm 2 mps 756 mmHg 58%
    04:00 +20°C° 0 mm 2 mps 756 mmHg 61%
    05:00 +20°C° 0 mm 2 mps 756 mmHg 65%
    06:00 +19°C° 0 mm 2 mps 756 mmHg 68%
    07:00 +23°C° 0 mm 2 mps 756 mmHg 59%
    08:00 +26°C° 0 mm 2 mps 756 mmHg 51%
    09:00 +29°C° 0 mm 2 mps 756 mmHg 43%
    10:00 +31°C° 0 mm 2 mps 756 mmHg 36%
    11:00 +34°C° 0 mm 1 mps 756 mmHg 30%
    12:00 +37°C° 0 mm 1 mps 756 mmHg 23%
    13:00 +37°C° 0 mm 1 mps 755 mmHg 22%
    14:00 +37°C° 0 mm 1 mps 755 mmHg 21%
    15:00 +38°C° 0 mm 2 mps 755 mmHg 19%
    16:00 +36°C° 0 mm 2 mps 755 mmHg 26%
    17:00 +32°C° 0 mm 2 mps 755 mmHg 34%
    18:00 +30°C° 0 mm 2 mps 754 mmHg 41%
    19:00 +29°C° 0 mm 2 mps 755 mmHg 42%
    20:00 +28°C° 0 mm 1 mps 755 mmHg 42%
    21:00 +26°C° 0 mm 1 mps 755 mmHg 43%
    22:00 +25°C° 0 mm 1 mps 755 mmHg 46%
    23:00 +24°C° 0 mm 1 mps 755 mmHg 49%

    25 August, Sunday

    Time Temperature Precipitation Wind Pressure Humidity
    00:00 +23°C° 0 mm 1 mps 755 mmHg 52%
    01:00 +23°C° 0 mm 1 mps 755 mmHg 57%
    02:00 +22°C° 0 mm 1 mps 755 mmHg 62%
    03:00 +22°C° 0 mm 1 mps 755 mmHg 67%
    04:00 +21°C° 0 mm 2 mps 755 mmHg 70%
    05:00 +21°C° 0 mm 2 mps 755 mmHg 72%
    06:00 +21°C° 0 mm 2 mps 755 mmHg 75%
    07:00 +23°C° 0 mm 2 mps 756 mmHg 70%
    08:00 +25°C° 0 mm 2 mps 756 mmHg 64%
    09:00 +27°C° 0 mm 2 mps 756 mmHg 59%
    10:00 +28°C° 0 mm 2 mps 756 mmHg 55%
    11:00 +29°C° 0 mm 3 mps 756 mmHg 52%
    12:00 +30°C° 0 mm 3 mps 756 mmHg 48%
    13:00 +30°C° 0 mm 3 mps 756 mmHg 50%
    14:00 +29°C° 0 mm 4 mps 756 mmHg 52%
    15:00 +29°C° 0 mm 4 mps 756 mmHg 54%
    16:00 +27°C° 0 mm 4 mps 756 mmHg 59%
    17:00 +26°C° 0 mm 4 mps 756 mmHg 65%
    18:00 +23°C° 0 mm 4 mps 756 mmHg 70%
    19:00 +22°C° 0 mm 3 mps 757 mmHg 77%
    20:00 +21°C° 0 mm 3 mps 758 mmHg 83%
    21:00 +20°C° 0 mm 3 mps 758 mmHg 89%
    22:00 +19°C° 0.2 mm 2 mps 758 mmHg 91%
    23:00 +19°C° 0.2 mm 2 mps 759 mmHg 93%

    26 August, Monday

    Time Temperature Precipitation Wind Pressure Humidity
    00:00 +19°C° 0.2 mm 2 mps 759 mmHg 94%
    01:00 +19°C° 0.3 mm 2 mps 759 mmHg 94%
    02:00 +18°C° 0.3 mm 2 mps 759 mmHg 94%
    03:00 +18°C° 0.3 mm 2 mps 759 mmHg 94%
    04:00 +19°C° 0 mm 1 mps 759 mmHg 93%
    05:00 +19°C° 0 mm 1 mps 760 mmHg 93%
    06:00 +19°C° 0 mm 1 mps 760 mmHg 92%
    07:00 +20°C° 0 mm 1 mps 761 mmHg 86%
    08:00 +20°C° 0 mm 2 mps 761 mmHg 80%
    09:00 +23°C° 0 mm 2 mps 761 mmHg 74%
    10:00 +23°C° 0 mm 2 mps 762 mmHg 69%
    11:00 +24°C° 0 mm 3 mps 762 mmHg 64%
    12:00 +25°C° 0 mm 3 mps 762 mmHg 59%
    13:00 +25°C° 0 mm 3 mps 762 mmHg 58%
    14:00 +26°C° 0 mm 3 mps 761 mmHg 57%
    15:00 +26°C° 0 mm 3 mps 761 mmHg 56%
    16:00 +25°C° 0 mm 3 mps 761 mmHg 60%
    17:00 +24°C° 0 mm 3 mps 761 mmHg 65%
    18:00 +22°C° 0 mm 3 mps 762 mmHg 69%
    19:00 +20°C° 0 mm 3 mps 762 mmHg 74%
    20:00 +19°C° 0 mm 2 mps 763 mmHg 80%
    21:00 +18°C° 0 mm 2 mps 763 mmHg 85%
    22:00 +17°C° 0 mm 2 mps 763 mmHg 88%
    23:00 +18°C° 0 mm 1 mps 763 mmHg 90%
    Show more